Time,TemperatureF,DewpointF,PressureIn,WindDirection,WindDirectionDegrees,WindSpeedMPH,WindSpeedGustMPH,Humidity,HourlyPrecipIn,Conditions,Clouds,dailyrainin,SoftwareType,DateUTC
2013-07-15 00:12:00,73.2,69.8,30.16,NW,315,0.0,-999.0,89,-99.99,,,0.00,Acu-Link.com,2013-07-15 04:12:00,
2013-07-15 00:27:00,72.9,69.8,30.16,NW,315,0.0,-999.0,90,-99.99,,,0.00,Acu-Link.com,2013-07-15 04:27:00,
2013-07-15 00:43:00,72.5,70.0,30.15,NW,315,0.0,-999.0,92,-99.99,,,0.00,Acu-Link.com,2013-07-15 04:43:00,
2013-07-15 00:58:00,72.1,69.6,30.16,NW,315,0.0,-999.0,92,-99.99,,,0.00,Acu-Link.com,2013-07-15 04:58:00,
2013-07-15 01:13:00,71.8,69.3,30.16,NW,315,0.0,-999.0,92,-99.99,,,0.00,Acu-Link.com,2013-07-15 05:13:00,
2013-07-15 01:28:00,71.6,69.5,30.17,NW,315,0.0,-999.0,93,-99.99,,,0.00,Acu-Link.com,2013-07-15 05:28:00,
2013-07-15 01:44:00,71.2,69.1,30.17,NW,315,0.0,-999.0,93,-99.99,,,0.00,Acu-Link.com,2013-07-15 05:44:00,
2013-07-15 01:59:00,71.1,69.3,30.17,NW,315,0.0,-999.0,94,-99.99,,,0.00,Acu-Link.com,2013-07-15 05:59:00,
2013-07-15 02:14:00,70.9,69.1,30.17,NW,315,0.0,-999.0,94,-99.99,,,0.00,Acu-Link.com,2013-07-15 06:14:00,
2013-07-15 02:30:00,70.5,68.7,30.16,NNW,337,0.0,-999.0,94,-99.99,,,0.00,Acu-Link.com,2013-07-15 06:30:00,
2013-07-15 02:45:00,70.5,68.7,30.17,NNW,337,0.0,-999.0,94,-99.99,,,0.00,Acu-Link.com,2013-07-15 06:45:00,
2013-07-15 03:00:00,70.3,68.8,30.17,SE,135,0.0,-999.0,95,-99.99,,,0.00,Acu-Link.com,2013-07-15 07:00:00,
2013-07-15 03:15:00,70.2,68.7,30.17,SE,135,0.0,-999.0,95,-99.99,,,0.00,Acu-Link.com,2013-07-15 07:15:00,
2013-07-15 03:31:00,70.0,68.5,30.17,SE,135,0.0,-999.0,95,-99.99,,,0.00,Acu-Link.com,2013-07-15 07:31:00,
2013-07-15 03:46:00,69.8,68.3,30.17,SE,135,0.0,-999.0,95,-99.99,,,0.00,Acu-Link.com,2013-07-15 07:46:00,
2013-07-15 04:01:00,69.6,68.1,30.17,SE,135,0.0,-999.0,95,-99.99,,,0.00,Acu-Link.com,2013-07-15 08:01:00,
2013-07-15 04:16:00,69.6,68.1,30.18,SE,135,0.0,-999.0,95,-99.99,,,0.00,Acu-Link.com,2013-07-15 08:16:00,
2013-07-15 04:32:00,69.4,67.9,30.17,SE,135,0.0,-999.0,95,-99.99,,,0.00,Acu-Link.com,2013-07-15 08:32:00,
2013-07-15 04:47:00,69.3,68.1,30.17,SE,135,0.0,-999.0,96,-99.99,,,0.00,Acu-Link.com,2013-07-15 08:47:00,
2013-07-15 05:02:00,68.9,67.7,30.18,SE,135,0.0,-999.0,96,-99.99,,,0.00,Acu-Link.com,2013-07-15 09:02:00,
2013-07-15 05:17:00,68.9,67.7,30.18,SE,135,0.0,-999.0,96,-99.99,,,0.00,Acu-Link.com,2013-07-15 09:17:00,
2013-07-15 05:32:00,68.9,67.7,30.18,SE,135,0.0,-999.0,96,-99.99,,,0.00,Acu-Link.com,2013-07-15 09:32:00,
2013-07-15 05:47:00,68.9,67.7,30.18,SE,135,0.0,-999.0,96,-99.99,,,0.00,Acu-Link.com,2013-07-15 09:47:00,
2013-07-15 06:18:00,69.3,68.1,30.18,SE,135,0.0,-999.0,96,-99.99,,,0.00,Acu-Link.com,2013-07-15 10:18:00,
2013-07-15 06:33:00,69.3,68.1,30.19,SE,135,0.0,-999.0,96,-99.99,,,0.00,Acu-Link.com,2013-07-15 10:33:00,
2013-07-15 06:48:00,69.8,68.6,30.19,SE,135,0.0,-999.0,96,-99.99,,,0.00,Acu-Link.com,2013-07-15 10:48:00,
2013-07-15 07:04:00,70.3,69.1,30.19,SE,135,0.0,-999.0,96,-99.99,,,0.00,Acu-Link.com,2013-07-15 11:04:00,
2013-07-15 07:19:00,70.7,69.5,30.20,SE,135,0.0,-999.0,96,-99.99,,,0.00,Acu-Link.com,2013-07-15 11:19:00,
2013-07-15 07:34:00,70.9,69.7,30.20,West,270,1.1,-999.0,96,-99.99,,,0.00,Acu-Link.com,2013-07-15 11:34:00,
2013-07-15 07:50:00,71.2,70.0,30.21,West,270,0.0,-999.0,96,-99.99,,,0.00,Acu-Link.com,2013-07-15 11:50:00,
2013-07-15 08:05:00,71.8,70.6,30.21,West,270,1.7,-999.0,96,-99.99,,,0.00,Acu-Link.com,2013-07-15 12:05:00,
2013-07-15 08:20:00,72.3,70.8,30.21,West,270,0.0,-999.0,95,-99.99,,,0.00,Acu-Link.com,2013-07-15 12:20:00,
2013-07-15 08:36:00,73.4,71.2,30.21,WSW,247,0.0,-999.0,93,-99.99,,,0.00,Acu-Link.com,2013-07-15 12:36:00,
2013-07-15 08:51:00,74.5,71.7,30.20,ESE,112,0.0,-999.0,91,-99.99,,,0.00,Acu-Link.com,2013-07-15 12:51:00,
2013-07-15 09:06:00,74.5,71.0,30.20,South,180,0.0,-999.0,89,-99.99,,,0.00,Acu-Link.com,2013-07-15 13:06:00,
2013-07-15 09:22:00,79.5,72.4,30.20,SW,225,0.0,-999.0,79,-99.99,,,0.00,Acu-Link.com,2013-07-15 13:22:00,
2013-07-15 09:37:00,78.4,72.4,30.19,ESE,112,0.0,-999.0,82,-99.99,,,0.00,Acu-Link.com,2013-07-15 13:37:00,
2013-07-15 09:52:00,79.7,73.0,30.18,West,270,1.1,-999.0,80,-99.99,,,0.00,Acu-Link.com,2013-07-15 13:52:00,
2013-07-15 10:08:00,81.1,72.8,30.18,ENE,67,0.0,-999.0,76,-99.99,,,0.00,Acu-Link.com,2013-07-15 14:08:00,
2013-07-15 10:23:00,82.4,73.7,30.18,West,270,0.0,-999.0,75,-99.99,,,0.00,Acu-Link.com,2013-07-15 14:23:00,
2013-07-15 10:38:00,83.5,73.5,30.17,West,270,0.0,-999.0,72,-99.99,,,0.00,Acu-Link.com,2013-07-15 14:38:00,
2013-07-15 11:09:00,85.6,73.8,30.16,NW,315,0.0,-999.0,68,-99.99,,,0.00,Acu-Link.com,2013-07-15 15:09:00,
2013-07-15 11:39:00,87.1,74.8,30.15,West,270,1.7,-999.0,67,-99.99,,,0.00,Acu-Link.com,2013-07-15 15:39:00,
2013-07-15 11:54:00,88.0,74.7,30.15,WNW,292,2.2,-999.0,65,-99.99,,,0.00,Acu-Link.com,2013-07-15 15:54:00,
2013-07-15 12:10:00,89.6,74.3,30.14,NW,315,0.0,-999.0,61,-99.99,,,0.00,Acu-Link.com,2013-07-15 16:10:00,
2013-07-15 12:25:00,93.4,75.3,30.13,West,270,2.2,-999.0,56,-99.99,,,0.00,Acu-Link.com,2013-07-15 16:25:00,
2013-07-15 12:56:00,92.7,75.2,30.13,WNW,292,3.7,-999.0,57,-99.99,,,0.00,Acu-Link.com,2013-07-15 16:56:00,
2013-07-15 13:11:00,92.5,73.9,30.13,WSW,247,1.1,-999.0,55,-99.99,,,0.00,Acu-Link.com,2013-07-15 17:11:00,
2013-07-15 13:26:00,92.7,74.1,30.12,WSW,247,2.7,-999.0,55,-99.99,,,0.00,Acu-Link.com,2013-07-15 17:26:00,
2013-07-15 13:42:00,93.4,74.2,30.12,WSW,247,3.7,-999.0,54,-99.99,,,0.00,Acu-Link.com,2013-07-15 17:42:00,
2013-07-15 13:57:00,94.1,74.9,30.11,WSW,247,0.0,-999.0,54,-99.99,,,0.00,Acu-Link.com,2013-07-15 17:57:00,
2013-07-15 14:12:00,92.5,72.8,30.11,West,270,2.2,-999.0,53,-99.99,,,0.00,Acu-Link.com,2013-07-15 18:12:00,
2013-07-15 14:28:00,93.6,74.4,30.09,NW,315,1.7,-999.0,54,-99.99,,,0.00,Acu-Link.com,2013-07-15 18:28:00,
2013-07-15 14:43:00,95.7,72.8,30.09,South,180,1.7,-999.0,48,-99.99,,,0.00,Acu-Link.com,2013-07-15 18:43:00,
2013-07-15 14:58:00,94.5,72.9,30.09,West,270,1.7,-999.0,50,-99.99,,,0.00,Acu-Link.com,2013-07-15 18:58:00,
2013-07-15 15:13:00,96.1,71.9,30.09,West,270,2.7,-999.0,46,-99.99,,,0.00,Acu-Link.com,2013-07-15 19:13:00,
2013-07-15 15:29:00,95.2,71.7,30.08,West,270,1.1,-999.0,47,-99.99,,,0.00,Acu-Link.com,2013-07-15 19:29:00,
2013-07-15 15:59:00,95.2,71.7,30.08,West,270,1.1,-999.0,47,-99.99,,,0.00,Acu-Link.com,2013-07-15 19:59:00,
2013-07-15 16:15:00,94.3,70.3,30.08,WSW,247,0.0,-999.0,46,-99.99,,,0.00,Acu-Link.com,2013-07-15 20:15:00,
2013-07-15 16:30:00,95.4,71.3,30.07,WSW,247,0.0,-999.0,46,-99.99,,,0.00,Acu-Link.com,2013-07-15 20:30:00,
2013-07-15 17:01:00,97.3,71.7,30.07,NW,315,0.0,-999.0,44,-99.99,,,0.00,Acu-Link.com,2013-07-15 21:01:00,
2013-07-15 17:16:00,102.7,72.9,30.06,North,0,0.0,-999.0,39,-99.99,,,0.00,Acu-Link.com,2013-07-15 21:16:00,
2013-07-15 17:46:00,100.8,72.0,30.05,West,270,2.7,-999.0,40,-99.99,,,0.00,Acu-Link.com,2013-07-15 21:46:00,
2013-07-15 18:02:00,97.7,72.0,30.05,WSW,247,2.7,-999.0,44,-99.99,,,0.00,Acu-Link.com,2013-07-15 22:02:00,
2013-07-15 18:17:00,95.5,71.4,30.05,WSW,247,0.0,-999.0,46,-99.99,,,0.00,Acu-Link.com,2013-07-15 22:17:00,
2013-07-15 18:32:00,95.0,72.8,30.05,NNW,337,0.0,-999.0,49,-99.99,,,0.00,Acu-Link.com,2013-07-15 22:32:00,
2013-07-15 18:47:00,93.4,71.9,30.05,WNW,292,0.0,-999.0,50,-99.99,,,0.00,Acu-Link.com,2013-07-15 22:47:00,
2013-07-15 19:18:00,95.4,73.2,30.06,West,270,0.0,-999.0,49,-99.99,,,0.00,Acu-Link.com,2013-07-15 23:18:00,
2013-07-15 19:33:00,92.5,73.4,30.06,West,270,0.0,-999.0,54,-99.99,,,0.00,Acu-Link.com,2013-07-15 23:33:00,
2013-07-15 20:04:00,89.4,73.1,30.06,West,270,0.0,-999.0,59,-99.99,,,0.00,Acu-Link.com,2013-07-16 00:04:00,
2013-07-15 20:19:00,87.6,72.5,30.06,West,270,0.0,-999.0,61,-99.99,,,0.00,Acu-Link.com,2013-07-16 00:19:00,
2013-07-15 20:34:00,86.4,72.8,30.06,West,270,0.0,-999.0,64,-99.99,,,0.00,Acu-Link.com,2013-07-16 00:34:00,
2013-07-15 20:50:00,84.9,73.1,30.07,West,270,0.0,-999.0,68,-99.99,,,0.00,Acu-Link.com,2013-07-16 00:50:00,
2013-07-15 21:05:00,83.8,73.8,30.07,East,90,0.0,-999.0,72,-99.99,,,0.00,Acu-Link.com,2013-07-16 01:05:00,
2013-07-15 21:20:00,83.1,73.9,30.07,East,90,0.0,-999.0,74,-99.99,,,0.00,Acu-Link.com,2013-07-16 01:20:00,
2013-07-15 22:06:00,81.5,74.0,30.09,ESE,112,0.0,-999.0,78,-99.99,,,0.00,Acu-Link.com,2013-07-16 02:06:00,
2013-07-15 22:53:00,80.2,73.5,30.10,ESE,112,0.0,-999.0,80,-99.99,,,0.00,Acu-Link.com,2013-07-16 02:53:00,
2013-07-15 23:08:00,79.9,72.8,30.10,South,180,0.0,-999.0,79,-99.99,,,0.00,Acu-Link.com,2013-07-16 03:08:00,
2013-07-15 23:38:00,79.2,73.2,30.11,South,180,0.0,-999.0,82,-99.99,,,0.00,Acu-Link.com,2013-07-16 03:38:00,